[[{"header":{"parameterUnit":"m.s-1","parameterCategory":1,"la1":30.2991,"la2":30.254,"lo1":-89.0895,"lo2":-89.0444,"dy":0.0017,"dx":0.0017,"nx":28,"ny":28,"refTime":"2023-11-15T09:00:00:Z","depth":0,"parameterNumber":2,"parameterNumberName":"U-component_of_WINDS"},"data":[0,0,0,0,0,0,0,0,0,0,0,0,0,0,0,0,0,0,0,0,0,0,0,0,0,0,0,0,0,0,0,0,0,0,0,0,0,0,0,0,0,0,0,0,0,0,0,0,0,0,0,0,0,0,0,0,0,0,-6.4553,-6.4557,0,-6.4867,-6.4871,-6.4875,-6.4881,-6.4877,-6.4874,-6.487,-6.5194,-6.5206,-6.5218,0,0,0,0,0,0,0,0,0,0,0,0,0,-6.3961,-6.3972,-6.4553,-6.4557,-6.4561,-6.4867,-6.4871,-6.4875,-6.4882,-6.4877,-6.4873,-6.4868,-6.519,-6.5204,-6.5219,0,0,0,0,0,0,0,0,0,0,0,0,0,-6.4241,-6.3976,-6.4552,-6.4601,-6.4608,-6.4866,-6.4871,-6.4877,-6.4883,-6.4877,-6.4871,-6.4866,-6.5185,-6.5203,-6.5221,-6.5452,0,0,-6.5277,-6.5285,0,0,0,0,0,0,0,0,-6.4225,-6.4263,-6.459,-6.4598,-6.4607,-6.4829,-6.4781,-6.507,-6.4885,-6.4779,-6.487,-6.4863,-6.5077,-6.5104,-6.5176,-6.5467,-6.5481,-6.5279,-6.529,-6.5298,-6.5303,0,0,0,0,0,0,0,-6.4206,-6.4249,-6.4677,-6.4595,-6.4605,-6.4608,-6.4641,-6.4836,-6.4957,-6.4788,-6.4789,-6.4826,-6.5081,-6.5158,-6.5184,-6.5486,-6.5278,-6.5295,-6.5306,-6.5313,-6.5985,-6.5992,0,0,0,0,0,0,-6.4176,-6.4233,-6.4667,-6.4687,-6.4398,-6.4623,-6.4661,-6.4764,-6.4955,-6.4979,-6.483,-6.4825,-6.513,-6.5162,-6.5195,-6.5481,-6.5298,-6.5315,-6.5326,-6.5978,-6.5987,-6.5994,0,0,0,0,0,0,-6.4164,-6.4215,-6.4655,-6.4461,-6.4517,-6.464,-6.4756,-6.4773,-6.485,-6.4987,-6.5009,-6.4887,-6.5126,-6.5169,-6.5389,-6.5492,-6.5323,-6.534,-6.597,-6.5981,-6.599,-6.6052,0,0,0,0,0,0,-6.4147,-6.421,-6.4299,-6.4462,-6.4527,-6.4842,-6.4762,-6.4783,-6.4882,-6.4878,-6.5047,-6.5069,-6.5125,-6.5361,-6.5407,-6.5514,-6.5354,-6.5962,-6.5975,-6.5987,-6.6042,-6.6063,-6.6082,0,0,0,0,0,-6.4125,-6.4303,-6.4303,-6.4355,-6.464,-6.4848,-6.4885,-6.4946,-6.489,-6.4981,-6.5069,-6.5064,-6.5473,-6.5383,-6.5435,-6.555,-6.5956,-6.5971,-6.5986,-6.6032,-6.6059,-6.6081,0,0,0,0,0,0,-6.4148,-6.4325,-6.4327,-6.4563,-6.469,-6.4849,-6.4964,-6.4971,-6.5117,-6.5107,-6.5177,-6.5215,-6.5434,-6.5513,-6.5411,-6.5785,-6.5708,-6.5734,-6.5725,-6.5752,-6.5771,-6.5749,-6.537,0,0,0,0,0,-6.418,-6.4334,-6.4481,-6.4675,-6.4738,-6.4841,-6.4933,-6.4969,-6.5104,-6.5158,-6.5263,-6.5395,-6.5553,-6.5656,-6.581,-6.6052,-6.6091,-6.6157,-6.6177,-6.6193,-6.6216,-6.6353,-6.6385,-6.6045,-6.6044,-6.6044,0,0,-6.4249,-6.4365,-6.4458,-6.4682,-6.4785,-6.4944,-6.4886,-6.5056,-6.5175,-6.5184,-6.5399,-6.548,-6.5632,-6.5865,-6.5972,-6.5938,-6.6318,-6.6212,-6.6224,-6.6239,-6.6372,-6.6404,-6.6433,-6.6055,-6.6053,-6.6051,0,0,-6.4456,-6.4558,-6.4732,-6.4837,-6.4993,-6.5061,-6.5102,-6.5261,-6.5315,-6.5531,-6.5542,-6.5685,-6.5956,-6.6065,-6.6156,-6.6406,-6.6408,-6.6454,-6.656,-6.6693,-6.672,-6.6745,-6.6837,-6.6869,-6.6475,-6.6476,-6.6476,0,-6.4522,-6.4761,-6.4821,-6.4993,-6.5092,-6.5107,-6.5286,-6.5384,-6.5583,-6.5653,-6.561,-6.5953,-6.6056,-6.6316,-6.6377,-6.6449,-6.6501,-6.6436,-6.6711,-6.6736,-6.676,-6.6849,-6.6883,-6.648,-6.648,-6.6479,-6.6479,0,-6.4836,-6.5002,-6.5124,-6.5316,-6.5429,-6.5603,-6.5691,-6.5798,-6.5824,-6.5896,-6.6117,-6.6242,-6.6422,-6.6486,-6.6513,-6.6751,-6.6725,-6.6696,-6.6621,-6.6796,-6.6881,-6.6915,-6.6487,-6.6486,-6.6484,-6.6483,0,0,-6.5066,-6.529,-6.5335,-6.5424,-6.5598,-6.5729,-6.5904,-6.608,-6.6172,-6.6309,-6.646,-6.6689,-6.6665,-6.6768,-6.6807,-6.6924,-6.7118,-6.6881,-6.6886,-6.6924,-6.7393,-6.7415,-6.7453,-6.7119,-6.7126,-6.7131,-6.7381,0,-6.5294,-6.5606,-6.5666,-6.5938,-6.6094,-6.6111,-6.6265,-6.6389,-6.6462,-6.6605,-6.6685,-6.6848,-6.6801,-6.6864,-6.698,-6.707,-6.7214,-6.7052,-6.7263,-6.7269,-6.7227,-6.7497,-6.7521,-6.7751,-6.7414,-6.742,-6.7424,0,-6.5602,-6.5748,-6.6035,-6.6192,-6.626,-6.6396,-6.6564,-6.67,-6.6843,-6.6887,-6.7003,-6.703,-6.7215,-6.7129,-6.7387,-6.7275,-6.7365,-6.7422,-6.7433,-6.7457,-6.7359,-6.7532,-6.7825,-6.7861,-6.7476,-6.7472,-6.7468,0,-6.5746,-6.6013,-6.6221,-6.6296,-6.6483,-6.6579,-6.6661,-6.6798,-6.6901,-6.7048,-6.7116,-6.7282,-6.7373,-6.7502,-6.7574,-6.7504,-6.7828,-6.7747,-6.7872,-6.7871,-6.7941,-6.7936,-6.8256,-6.7994,-6.7993,-6.7993,-6.7992,0,-6.5996,-6.6172,-6.6288,-6.6416,-6.6615,-6.6682,-6.6877,-6.6958,-6.708,-6.7226,-6.725,-6.7386,-6.7471,-6.762,-6.7677,-6.7884,-6.7924,-6.7967,-6.7981,-6.7967,-6.7962,-6.8028,-6.8015,-6.8002,-6.8,-6.7998,-6.7996,0,-6.619,-6.6275,-6.6503,-6.6661,-6.6706,-6.6845,-6.6982,-6.7108,-6.7179,-6.7364,-6.7411,-6.7524,-6.7701,-6.7785,-6.8004,-6.8042,-6.8278,-6.8279,-6.823,-6.8236,-6.8357,-6.8346,-6.8734,-6.8789,-6.8487,-6.849,-6.8492,0,-6.6346,-6.6482,-6.6656,-6.6755,-6.684,-6.6999,-6.7104,-6.7176,-6.7285,-6.7459,-6.7565,-6.7743,-6.7889,-6.8171,-6.8274,-6.8442,-6.845,-6.8574,-6.8475,-6.8458,-6.8456,-6.8448,-6.8464,-6.8593,-6.8596,-6.8598,-6.86,0,-6.6614,-6.6649,-6.68,-6.6967,-6.7093,-6.7227,-6.736,-6.744,-6.7533,-6.7655,-6.7836,-6.7949,-6.8173,-6.8351,-6.8526,-6.8613,-6.8624,-6.863,-6.8669,-6.8657,-6.8624,-6.8647,-6.8282,-6.8621,-6.8619,-6.8618,-6.8616,-6.8616,-6.6796,-6.6919,-6.7061,-6.723,-6.7337,-6.7461,-6.7588,-6.7676,-6.7828,-6.8016,-6.8049,-6.8243,-6.8384,-6.8621,-6.8714,-6.8867,-6.8839,-6.8894,-6.8908,-6.8922,-6.893,-6.8597,-6.8899,-6.8899,-6.8898,-6.8898,-6.8897,0,-6.7068,-6.716,-6.7314,-6.75,-6.7633,-6.763,-6.7777,-6.7889,-6.8059,-6.8189,-6.8333,-6.8543,-6.8715,-6.8832,-6.9008,-6.9108,-6.9118,-6.9152,-6.9147,-6.9168,-6.8944,-6.8894,-6.9142,-6.9142,-6.9142,-6.9142,-6.9142,-6.9142,-6.7225,-6.7434,-6.7487,-6.775,-6.7842,-6.8032,-6.8117,-6.8232,-6.8337,-6.857,-6.8713,-6.8788,-6.8915,-6.91,-6.9259,-6.9289,-6.9354,-6.939,-6.9419,-6.9209,-6.9183,-6.9159,-6.9113,-6.9402,-6.9403,-6.9631,-6.9633,-6.9635]},{"header":{"parameterUnit":"m.s-1","parameterCategory":1,"la1":30.2991,"la2":30.254,"lo1":-89.0895,"lo2":-89.0444,"dy":0.0017,"dx":0.0017,"nx":28,"ny":28,"refTime":"2023-11-15T09:00:00:Z","depth":0,"parameterNumber":3,"parameterNumberName":"V-component_of_WINDS"},"data":[0,0,0,0,0,0,0,0,0,0,0,0,0,0,0,0,0,0,0,0,0,0,0,0,0,0,0,0,0,0,0,0,0,0,0,0,0,0,0,0,0,0,0,0,0,0,0,0,0,0,0,0,0,0,0,0,0,0,-8.0426,-8.0427,0,-8.047,-8.0471,-8.0471,-8.0348,-8.0345,-8.0341,-8.0337,-8.0377,-8.0381,-8.0386,0,0,0,0,0,0,0,0,0,0,0,0,0,-8.0231,-8.0235,-8.0426,-8.0427,-8.0427,-8.047,-8.0471,-8.0471,-8.0349,-8.0344,-8.034,-8.0336,-8.0375,-8.0381,-8.0386,0,0,0,0,0,0,0,0,0,0,0,0,0,-8.0299,-8.0237,-8.0426,-8.0372,-8.0367,-8.047,-8.0471,-8.0471,-8.035,-8.0344,-8.0339,-8.0333,-8.0374,-8.038,-8.0387,-8.0543,0,0,-8.0408,-8.0411,0,0,0,0,0,0,0,0,-8.0296,-8.0307,-8.0379,-8.0375,-8.0371,-8.0398,-8.0416,-8.0495,-8.0351,-8.0356,-8.0337,-8.0331,-8.0388,-8.0393,-8.0414,-8.0545,-8.0546,-8.0409,-8.0413,-8.0416,-8.0418,0,0,0,0,0,0,0,-8.0291,-8.0304,-8.0443,-8.038,-8.0375,-8.0343,-8.0347,-8.0431,-8.0403,-8.0355,-8.0347,-8.0354,-8.0385,-8.0408,-8.0414,-8.0547,-8.0408,-8.0414,-8.0419,-8.0421,-8.0809,-8.0814,0,0,0,0,0,0,-8.0294,-8.0301,-8.0442,-8.0444,-8.0319,-8.0351,-8.0355,-8.0395,-8.0402,-8.0398,-8.0359,-8.0348,-8.0399,-8.0406,-8.0415,-8.0599,-8.0416,-8.0422,-8.0426,-8.0802,-8.081,-8.0817,0,0,0,0,0,0,-8.029,-8.0308,-8.044,-8.037,-8.0385,-8.0361,-8.0406,-8.0399,-8.0422,-8.0405,-8.0398,-8.0388,-8.0395,-8.0405,-8.0513,-8.0599,-8.0425,-8.0431,-8.0795,-8.0805,-8.0813,-8.0968,0,0,0,0,0,0,-8.0285,-8.0307,-8.0367,-8.0373,-8.0389,-8.0539,-8.0412,-8.0404,-8.0434,-8.0421,-8.043,-8.0426,-8.0391,-8.0503,-8.0519,-8.0605,-8.0437,-8.0787,-8.0799,-8.081,-8.0955,-8.0982,-8.1004,0,0,0,0,0,-8.0279,-8.0408,-8.0371,-8.0389,-8.0464,-8.0544,-8.0553,-8.0512,-8.0442,-8.0502,-8.0491,-8.0426,-8.0586,-8.0515,-8.0532,-8.0621,-8.0782,-8.0796,-8.0809,-8.0944,-8.0977,-8.1004,0,0,0,0,0,0,-8.0411,-8.0407,-8.0367,-8.0502,-8.0525,-8.0523,-8.0597,-8.0547,-8.0588,-8.0574,-8.0519,-8.0522,-8.064,-8.064,-8.0561,-8.0773,-8.0672,-8.069,-8.0769,-8.0799,-8.0823,-8.0821,-8.0442,0,0,0,0,0,-8.0456,-8.0523,-8.0515,-8.0635,-8.0649,-8.0622,-8.0655,-8.0621,-8.0642,-8.065,-8.0647,-8.0668,-8.0723,-8.0761,-8.081,-8.0954,-8.0955,-8.1024,-8.1048,-8.1069,-8.1085,-8.1163,-8.1194,-8.0862,-8.0862,-8.0862,0,0,-8.0549,-8.0555,-8.0601,-8.0662,-8.0676,-8.0746,-8.063,-8.0708,-8.0759,-8.0661,-8.0764,-8.0762,-8.0782,-8.0909,-8.0965,-8.0913,-8.1177,-8.1086,-8.1103,-8.1108,-8.118,-8.1212,-8.124,-8.0872,-8.087,-8.0868,0,0,-8.0755,-8.0767,-8.0869,-8.0886,-8.0909,-8.089,-8.0914,-8.0922,-8.0918,-8.102,-8.0948,-8.1006,-8.1102,-8.112,-8.1142,-8.1356,-8.1298,-8.1373,-8.1501,-8.1578,-8.1604,-8.1627,-8.1705,-8.1733,-8.139,-8.139,-8.139,0,-8.0868,-8.0972,-8.0927,-8.1011,-8.104,-8.0957,-8.1059,-8.1077,-8.1114,-8.1136,-8.1078,-8.1198,-8.1205,-8.1336,-8.1389,-8.1408,-8.1434,-8.1373,-8.1604,-8.1627,-8.1647,-8.1721,-8.1751,-8.1399,-8.1398,-8.1397,-8.1396,0,-8.111,-8.1183,-8.1262,-8.1304,-8.1342,-8.1434,-8.1402,-8.1445,-8.1408,-8.1395,-8.1501,-8.1506,-8.1557,-8.1585,-8.1548,-8.1711,-8.1679,-8.1614,-8.1511,-8.1689,-8.1758,-8.1785,-8.1412,-8.1409,-8.1406,-8.1404,0,0,-8.1401,-8.1418,-8.1448,-8.1466,-8.1486,-8.1541,-8.1629,-8.1681,-8.172,-8.1748,-8.1821,-8.1905,-8.1845,-8.187,-8.1834,-8.1901,-8.2073,-8.1828,-8.1827,-8.1875,-8.2254,-8.2305,-8.2338,-8.2034,-8.2039,-8.2043,-8.2253,0,-8.1606,-8.1761,-8.1723,-8.1876,-8.1944,-8.1866,-8.1943,-8.1963,-8.1953,-8.2007,-8.1995,-8.2057,-8.1972,-8.1987,-8.2049,-8.2039,-8.2149,-8.2023,-8.2102,-8.2105,-8.2101,-8.2373,-8.2427,-8.2624,-8.2279,-8.2284,-8.2287,0,-8.1866,-8.1908,-8.2069,-8.208,-8.2106,-8.2177,-8.2222,-8.2275,-8.2295,-8.2283,-8.2312,-8.2264,-8.235,-8.2246,-8.2365,-8.228,-8.231,-8.2309,-8.2316,-8.2323,-8.2208,-8.239,-8.2686,-8.2717,-8.2328,-8.2325,-8.2322,0,-8.2065,-8.216,-8.227,-8.2288,-8.2302,-8.2354,-8.2362,-8.2377,-8.2411,-8.2449,-8.247,-8.2517,-8.2543,-8.258,-8.2546,-8.2473,-8.267,-8.2563,-8.2663,-8.2664,-8.2709,-8.2707,-8.3017,-8.2725,-8.2725,-8.2724,-8.2724,0,-8.2298,-8.24,-8.236,-8.2427,-8.2539,-8.2494,-8.2605,-8.2603,-8.2618,-8.2683,-8.2616,-8.2678,-8.2627,-8.2684,-8.2657,-8.276,-8.2772,-8.2764,-8.2756,-8.2772,-8.2773,-8.2792,-8.2778,-8.2732,-8.273,-8.2729,-8.2728,0,-8.254,-8.2517,-8.2631,-8.2636,-8.264,-8.2722,-8.2726,-8.2788,-8.2773,-8.2856,-8.2872,-8.2849,-8.2913,-8.2882,-8.2947,-8.2929,-8.3063,-8.3035,-8.3058,-8.3051,-8.3153,-8.3145,-8.3487,-8.353,-8.321,-8.3213,-8.3215,0,-8.2692,-8.2769,-8.2784,-8.2824,-8.2837,-8.2902,-8.2937,-8.2895,-8.2933,-8.2964,-8.3022,-8.3081,-8.3126,-8.3231,-8.3219,-8.3269,-8.3243,-8.3359,-8.325,-8.3264,-8.3247,-8.3244,-8.3252,-8.3382,-8.3386,-8.3389,-8.3391,0,-8.2965,-8.295,-8.3004,-8.3056,-8.31,-8.3138,-8.3169,-8.3205,-8.3163,-8.321,-8.3276,-8.3311,-8.338,-8.3439,-8.3483,-8.3488,-8.3434,-8.3426,-8.3452,-8.3469,-8.348,-8.3478,-8.312,-8.3418,-8.3416,-8.3414,-8.3412,-8.3411,-8.3167,-8.3233,-8.3255,-8.3317,-8.3337,-8.3369,-8.3428,-8.3422,-8.3477,-8.3531,-8.3502,-8.3579,-8.3598,-8.3651,-8.3665,-8.3724,-8.3677,-8.3715,-8.3724,-8.3735,-8.375,-8.3469,-8.3731,-8.373,-8.373,-8.3729,-8.3728,0,-8.3438,-8.3449,-8.3507,-8.3555,-8.3605,-8.355,-8.3583,-8.3627,-8.3697,-8.372,-8.3767,-8.3843,-8.39,-8.3893,-8.3945,-8.3994,-8.397,-8.4009,-8.4006,-8.4009,-8.3787,-8.3761,-8.4028,-8.4028,-8.4027,-8.4027,-8.4027,-8.4027,-8.3586,-8.3695,-8.3683,-8.3801,-8.3809,-8.3887,-8.391,-8.3939,-8.3957,-8.4046,-8.4095,-8.409,-8.4101,-8.4154,-8.4204,-8.42,-8.4223,-8.4272,-8.4259,-8.4053,-8.4024,-8.3996,-8.397,-8.4277,-8.4277,-8.4476,-8.4478,-8.4479]}]]